Zurück zum Katalog

FENGYUN 1C DEB

AktivPO
NORAD 30603·DEBRIS·🇨🇳 China

Gestartet May 10, 1999 von Taiyuan Satellite Launch Center

Loading…

Nächste Überflüge (nächste 24 Stunden)

TLE

AktuellSource: Space-Track

Epoche: Sep 14, 2026, 11:00 UTC

1 30603U 99025AMJ 26257.45855328  .00000845  00000-0  68661-3 0  9996
2 30603  98.4023 256.7229 0181758 169.2791 348.9115 13.84923840986914

Verfolge FENGYUN 1C DEB in Echtzeit mit AllMySat

Download on the App Store